(322967) = 2002 KJ14 = 2006 QX157

Discovered at Palomar on 2002-05-30 by NEAT.

Orbit

Orbit type: Main Belt

Note: WebGL enabled browser required.

epoch2023-09-13.0
epoch JD2460200.5
perihelion date2024-02-04.94379
perihelion JD2460345.44379
argument of perihelion (°)123.10301
ascending node (°)158.13435
inclination (°)10.61398
eccentricity0.1756109
perihelion distance (AU)1.9264187
Tisserand w.r.t. Jupiter3.5
ΔV w.r.t. Earth (km/sec)9.2
semimajor axis (AU)2.3367832
mean anomaly (°)320.00775
mean daily motion (°/day)0.27591560
aphelion distance (AU)2.747
period (years)3.57
P-vector [x]0.20021192
P-vector [y]-0.94906359
P-vector [z]-0.24329712
Q-vector [x]0.97734816
Q-vector [y]0.21085145
Q-vector [z]-0.01822746
absolute magnitude17.3
phase slope0.15
uncertainty0
referenceMPEC 2023-N34
observations used285
oppositions13
arc length (days)7749
first opposition used2002
last opposition used2023
residual rms (arc-secs)0.75
perturbers coarse indicatorM-v
perturbers precise indicator003Ek
first observation date used2002-04-19.0
last observation date used2023-07-07.0
computer nameMPCLINUX
JD of orbit computation2456581.528633
perihelion JD uncertainty (days)1.0877E-04
argument of perihelion uncertainty (°)5.2427E-05
ascending node uncertainty (°)3.5487E-05
inclination uncertainty (°)9.6491E-06
eccentricity uncertainty 7.5783E-08
perihelion distance uncertainty (AU)1.7257E-07
Minimum Orbit Intersection Distances (in AU)
for orbit epoch: 2460000.5, reference: E2023-H35
Mercury1.48492
Venus1.21707
Earth0.93243
Mars0.57469
Jupiter2.46305
Saturn6.36377
Uranus15.8876
Neptune27.3337

Observations

291 total observations over interval: 2002 04 19.43950 – 2023 07 07.286662
These data are available for download (format description).

Date (UT) J2000 RA J2000 Dec Magn Location Ref
2002 04 19.43950 16 30 33.14 -04 00 22.4 19.9 V 691 – Steward Observatory, Kitt Peak-Spacewatch MPS 186858
2002 04 19.46129 16 30 33.08 -04 00 10.7 20.4 V 691 – Steward Observatory, Kitt Peak-Spacewatch MPS 186858
2002 04 19.48327 16 30 32.93 -03 59 58.4 20.6 V 691 – Steward Observatory, Kitt Peak-Spacewatch MPS 186858
2002 05 30.25255 16 05 45.54 +00 40 41.0 19.1   644 – Palomar Mountain/NEAT MPS 57828
2002 05 30.27676 16 05 44.20 +00 40 44.3 19.3   644 – Palomar Mountain/NEAT MPS 57828
2002 05 30.32177 16 05 41.74 +00 40 50.0 19.2   644 – Palomar Mountain/NEAT MPS 57828
2002 06 03.24072 16 02 21.46 +00 46 48.0 18.8   704 – Lincoln Laboratory ETS, New Mexico MPS 57828
2002 06 03.25453 16 02 20.81 +00 46 47.7 19.0   704 – Lincoln Laboratory ETS, New Mexico MPS 57828
2002 06 03.26839 16 02 20.03 +00 46 49.7 19.1   704 – Lincoln Laboratory ETS, New Mexico MPS 57828
2002 06 03.29614 16 02 18.54 +00 46 51.6 18.9   704 – Lincoln Laboratory ETS, New Mexico MPS 57828
2002 06 08.38790 15 58 13.83 +00 46 54.1 19.6   644 – Palomar Mountain/NEAT MPS 59011
2002 06 08.39914 15 58 13.28 +00 46 53.2 19.8   644 – Palomar Mountain/NEAT MPS 59011
2002 06 08.40935 15 58 12.83 +00 46 52.7 19.5   644 – Palomar Mountain/NEAT MPS 59011
2005 04 04.19480 09 53 04.78 +14 18 46.8 21.6 R G96 – Mt. Lemmon Survey MPS 186858
2005 04 04.20010 09 53 04.67 +14 18 48.3 20.7 R G96 – Mt. Lemmon Survey MPS 186858
2005 04 04.20539 09 53 04.55 +14 18 49.6 20.0 R G96 – Mt. Lemmon Survey MPS 186858
2005 04 04.21069 09 53 04.55 +14 18 51.1 20.8 R G96 – Mt. Lemmon Survey MPS 186858
2006 08 15.71090 23 08 16.61 -04 16 37.2 20.3 R D35 – Lulin Observatory MPS 178696
2006 08 15.72390 23 08 16.13 -04 16 45.7 20.8 R D35 – Lulin Observatory MPS 178696
2006 08 15.73832 23 08 15.65 -04 16 55.0 20.4 R D35 – Lulin Observatory MPS 178696
2006 08 19.34279 23 06 07.54 -04 58 41.3 19.8 V 691 – Steward Observatory, Kitt Peak-Spacewatch MPS 178696
2006 08 19.36012 23 06 06.83 -04 58 53.6 20.1 V 691 – Steward Observatory, Kitt Peak-Spacewatch MPS 178696
2006 08 19.37745 23 06 06.12 -04 59 05.9 20.3 V 691 – Steward Observatory, Kitt Peak-Spacewatch MPS 178696
2006 08 27.30869 23 00 35.48 -06 37 13.3 19.7 V 691 – Steward Observatory, Kitt Peak-Spacewatch MPS 178696
2006 08 27.32604 23 00 34.65 -06 37 26.6 19.7 V 691 – Steward Observatory, Kitt Peak-Spacewatch MPS 178696
2006 08 27.34340 23 00 33.82 -06 37 39.8 19.7 V 691 – Steward Observatory, Kitt Peak-Spacewatch MPS 178696
2006 09 14.26956 22 46 59.30 -10 19 03.7 19.4 V 703 – Catalina Sky Survey MPS 186858
2006 09 14.27595 22 46 59.16 -10 19 08.0 19.1 V 703 – Catalina Sky Survey MPS 186858
2006 09 14.28238 22 46 58.80 -10 19 12.7 19.2 V 703 – Catalina Sky Survey MPS 186858
2006 09 14.28883 22 46 58.44 -10 19 17.1 19.5 V 703 – Catalina Sky Survey MPS 186858
2009 04 18.34269 14 24 23.32 +02 22 18.9 20.1 V 703 – Catalina Sky Survey MPS 284252
2009 04 18.34871 14 24 22.86 +02 22 24.3 20.4 V 703 – Catalina Sky Survey MPS 284252
2009 04 18.35480 14 24 22.57 +02 22 26.5 19.6 V 703 – Catalina Sky Survey MPS 284252
2009 04 18.36093 14 24 22.21 +02 22 30.8 20.0 V 703 – Catalina Sky Survey MPS 284252
2012 01 20.30297 09 36 56.14 +07 25 23.8 21.1 V 691 – Steward Observatory, Kitt Peak-Spacewatch MPS 407696
2012 01 20.32093 09 36 55.36 +07 25 29.8 21.4 V 691 – Steward Observatory, Kitt Peak-Spacewatch MPS 407696
2012 01 20.33885 09 36 54.53 +07 25 35.8 20.9 V 691 – Steward Observatory, Kitt Peak-Spacewatch MPS 407696
2012 03 25.19002 08 50 01.24 +15 16 04.7 21.4 V G96 – Mt. Lemmon Survey MPS 418428
2012 03 25.19697 08 50 01.21 +15 16 07.1 22.0 V G96 – Mt. Lemmon Survey MPS 418428
2012 03 25.20389 08 50 01.17 +15 16 09.5 22.1 V G96 – Mt. Lemmon Survey MPS 418428
2012 03 25.21082 08 50 01.10 +15 16 10.9 21.5 V G96 – Mt. Lemmon Survey MPS 418428
2013 06 07.39581 21 01 56.96 -03 35 14.1 20.2 V G96 – Mt. Lemmon Survey MPS 469845
2013 06 07.40240 21 01 57.18 -03 35 13.0 19.9 V G96 – Mt. Lemmon Survey MPS 469845
2013 06 07.40899 21 01 57.39 -03 35 11.4 20.2 V G96 – Mt. Lemmon Survey MPS 469845
2013 06 07.41564 21 01 57.61 -03 35 10.1 20.1 V G96 – Mt. Lemmon Survey MPS 469845
2013 07 14.95353 21 02 04.49 -04 29 27.0 19.2 R 106 – Crni Vrh MPS 472605
2013 07 14.96521 21 02 04.07 -04 29 32.2 18.7 R 106 – Crni Vrh MPS 472605
2013 07 14.97690 21 02 03.70 -04 29 36.9 18.4 R 106 – Crni Vrh MPS 472605
2013 07 14.98858 21 02 03.27 -04 29 42.0 18.6 R 106 – Crni Vrh MPS 472605
2013 07 16.51913 21 01 11.086 -04 40 52.35 19.3 w F51 – Pan-STARRS 1, Haleakala MPS 472605
2013 07 16.53328 21 01 10.540 -04 40 58.75 19.2 w F51 – Pan-STARRS 1, Haleakala MPS 472605
2013 07 16.55028 21 01 09.888 -04 41 06.42 19.3 w F51 – Pan-STARRS 1, Haleakala MPS 472605
2013 07 16.56647 21 01 09.270 -04 41 13.76 19.5 w F51 – Pan-STARRS 1, Haleakala MPS 472605
2013 07 28.22112 20 53 11.34 -06 27 56.0   691 – Steward Observatory, Kitt Peak-Spacewatch MPS 472972
2013 07 28.23878 20 53 10.49 -06 28 07.3   691 – Steward Observatory, Kitt Peak-Spacewatch MPS 472972
2013 07 28.25642 20 53 09.61 -06 28 18.6   691 – Steward Observatory, Kitt Peak-Spacewatch MPS 472972
2013 10 09.13992 20 47 14.73 -17 18 01.3 20.6 V G96 – Mt. Lemmon Survey MPS 482199
2013 10 09.14655 20 47 15.12 -17 18 01.8 20.0 V G96 – Mt. Lemmon Survey MPS 482199
2013 10 09.15319 20 47 15.43 -17 18 02.8 20.4 V G96 – Mt. Lemmon Survey MPS 482199
2013 10 09.16028 20 47 15.87 -17 18 03.4 20.7 V G96 – Mt. Lemmon Survey MPS 482199
2014 12 16.42218 05 52 05.099 +07 46 12.31 21.0 w F51 – Pan-STARRS 1, Haleakala MPS 558250
2014 12 16.43346 05 52 04.359 +07 46 12.68 20.9 w F51 – Pan-STARRS 1, Haleakala MPS 558250
2015 01 17.25984 05 23 05.596 +09 08 42.64 21.6 w F51 – Pan-STARRS 1, Haleakala MPS 567017
2015 01 17.27299 05 23 05.087 +09 08 46.20 21.4 w F51 – Pan-STARRS 1, Haleakala MPS 567017
2015 01 17.28607 05 23 04.575 +09 08 49.49 21.4 w F51 – Pan-STARRS 1, Haleakala MPS 567017
2015 01 19.39207 05 21 49.484 +09 18 09.46 21.5 w F51 – Pan-STARRS 1, Haleakala MPS 567017
2015 01 19.40512 05 21 49.018 +09 18 12.92 21.6 w F51 – Pan-STARRS 1, Haleakala MPS 567017
2015 01 19.41821 05 21 48.564 +09 18 16.46 21.5 w F51 – Pan-STARRS 1, Haleakala MPS 567017
2016 01 18.61187 12 53 58.712 -02 48 20.72 21.4 w F51 – Pan-STARRS 1, Haleakala MPS 673763
2016 01 18.62373 12 53 59.228 -02 48 20.83 21.6 w F51 – Pan-STARRS 1, Haleakala MPS 673763
2016 01 18.63561 12 53 59.772 -02 48 20.93 21.4 w F51 – Pan-STARRS 1, Haleakala MPS 673763
2016 02 15.54246 13 07 24.831 -01 32 34.84 21.0 w F51 – Pan-STARRS 1, Haleakala MPS 685922
2016 02 15.56585 13 07 24.987 -01 32 26.87 21.0 w F51 – Pan-STARRS 1, Haleakala MPS 685922
2016 02 15.57756 13 07 25.048 -01 32 22.87 21.1 w F51 – Pan-STARRS 1, Haleakala MPS 685922
2016 03 11.76840 13 01 59.23 +02 00 41.5 20.6 R D29 – Purple Mountain Observatory, XuYi Station MPS 695608
2016 03 11.79668 13 01 58.21 +02 00 59.3 20.5 R D29 – Purple Mountain Observatory, XuYi Station MPS 695608
2016 03 14.39343 13 00 26.85 +02 29 13.2 20.1 V G96 – Mt. Lemmon Survey MPS 695608
2016 03 14.39851 13 00 26.65 +02 29 16.6 20.1 V G96 – Mt. Lemmon Survey MPS 695608
2016 03 14.40360 13 00 26.46 +02 29 20.1 20.2 V G96 – Mt. Lemmon Survey MPS 695608
2016 03 14.40868 13 00 26.26 +02 29 23.0 20.1 V G96 – Mt. Lemmon Survey MPS 695608
2016 03 14.45597 13 00 24.38 +02 29 54.7 20.2 V G96 – Mt. Lemmon Survey MPS 695608
2016 03 14.46179 13 00 24.19 +02 29 58.5 20.3 V G96 – Mt. Lemmon Survey MPS 695608
2016 03 14.46760 13 00 23.96 +02 30 02.1 20.3 V G96 – Mt. Lemmon Survey MPS 695608
2016 03 14.47341 13 00 23.72 +02 30 05.5 20.3 V G96 – Mt. Lemmon Survey MPS 695608
2016 03 28.42410 12 50 02.00 +05 08 18.5 20.0 V G96 – Mt. Lemmon Survey MPS 698404
2016 03 28.43094 12 50 01.68 +05 08 23.3 20.0 V G96 – Mt. Lemmon Survey MPS 698404
2016 03 28.43778 12 50 01.32 +05 08 27.6 20.0 V G96 – Mt. Lemmon Survey MPS 698404
2016 03 28.44463 12 50 00.92 +05 08 32.3 19.9 V G96 – Mt. Lemmon Survey MPS 698404
2016 03 29.40988 12 49 12.657 +05 19 25.53 19.9 r F51 – Pan-STARRS 1, Haleakala MPS 698404
2016 03 29.42320 12 49 11.936 +05 19 34.29 20.0 r F51 – Pan-STARRS 1, Haleakala MPS 698404
2016 03 29.43659 12 49 11.228 +05 19 43.46 19.9 r F51 – Pan-STARRS 1, Haleakala MPS 698404
